SL-16 DEB, 39881

Orbit data source: Space-Track

SL-16 DEB, 39881 is space debris in LEO originally from a launch on Fri, 26 Mar 1993 UTC launched from the Tyuratam Missile And Space Complex (TTMTR). Debris objects in space refer to the collection of defunct objects orbiting the Earth. Examples of debris include non-operational satellites, rocket bodies, and fragments generated from explosions, collisions, or faulty payload assembly.

Loading next visibility...
Identifier
39881, 1993-016BF
Orbit
LEO
Country
Flag of CISCIS
Related business
Manufacturer
Unknown
Mission
Spacecraft
Bus & Motor
Unknown
Mass
Unknown
Launch date (UTC)
1993-03-26 (33 years ago)
Launch vehicle
Unknown
Launch site
Tyuratam Missile And Space Complex (TTMTR)
Object type
Payload
Rocket body
Debris
Shape & HBR
Unknown shape, 0.1 m
Radar Cross Section
Small (<0.1 m²)

Expand to show TLE details & history
Last TLE update: 3 days ago

TLE from 3 days ago
0 SL-16 DEB
1 39881U 93016BF  26253.18679990  .00001776  00000-0  97728-3 0  9992
2 39881  70.9869  51.5404 0116925 216.9782 142.3239 14.09580324609508
Epoch: 2026-09-10T04:28Z
TLE epoch observation values (Epoch: 2026-09-10T04:28:59.511Z)
Latitude
0.00002°
Longitude
-4.93567°
Altitude
930.567 km
Speed
7.352 km/s
True Right ascension
03h 26m 09s
True Declination
0° 00' 00"
Sunlit
Object was in daylight at epoch
Visualization orbit readout
Latitude
Unknown
Longitude
Unknown
Altitude
Unknown
Speed
Unknown
Apparent Right ascension
Unknown
Apparent Declination
Unknown
Sunlit
N/A
Visualization observer readout
Local Sidereal Time
09:45:11
Azimuth
Unknown
Elevation
Unknown
Doppler factor
Unknown
Orbital elements
Apogee altitude
943.356 km
Perigee altitude
774.122 km
Semi-major axis
7,236.876 km
Eccentricity
0.01169
Inclination
70.9869°
RAAN
51.5404°
Arg. of periapsis
216.9782°
True anomaly
143.13342°
Mean anomaly
142.3239°
Eccentric anomaly
142.7296°
Mean motion
3.52547 °/min
Orbital period
102.11 mins
BSTAR
0.00097728
Loading maneuver chart data...
Computing Atmospheric mass density...
Loading historical data...
Loading historical data...
Loading historical data...
Loading historical data...
Loading historical data...
Loading historical data...
Loading historical data...

Documentation

Showing up to 5 results
|